sat.trackr.live / text

‹ back to catalog

HULIANWANG DIGUI-169

NORAD 69572 · 2026-137A

PAYLOAD ACTIVE UNKNOWN

§ Identity

Operator
Country
PRC
Launch date
2026-06-17
Launch site
WSC
Launch vehicle
Mass (kg)
RCS (m²)

External: N2YO · Heavens-Above · Gunter

§ Orbital elements

Epoch: 2026-09-20T00:58:42.521088Z

Period
108.33 min
Inclination
50.0002°
Eccentricity
0.0000278
Mean motion
13.29326556 rev/d
Perigee alt
1,149.1 km
Apogee alt
1,149.5 km
Semi-major
7,527.4 km
B*
1.0763e-4
RAAN
255.9447°
Arg perigee
354.1157°
Mean anomaly
5.9712°
Rev number
1,294

§ Raw data

HULIANWANG DIGUI-1691 69572U 26137A   26263.04076992 -.00000074  00000+0  10763-3 0  99952 69572  50.0002 255.9447 0000278 354.1157   5.9712 13.29326556 12949

JSON: /api/v1/satellites/69572 · /tle

For live sub-satellite position, see the globe view (requires WebGL).

§ Visibility from observer

Set your observer location to see the next 7 days of passes ≥ 10°. The values pass through the URL so the page stays shareable.

No JS? Fill the form by hand. The geolocation button needs JavaScript.